This is the latest recevied weather packets stored in our database for station/object IW9DKU-3. If no packets are shown the sender has not sent any weather packets the latest 10 day(s).
| Time | Temp. | Humidity | Pressure | Rain* | Wind** | Luminosity | Snow |
|---|---|---|---|---|---|---|---|
| 1777705587 | 18.33° C | 56% | 1025.8 hPa | - | - | - | - |
| 1777704383 | 18.33° C | 56% | 1026 hPa | - | - | - | - |
| 1777703179 | 17.78° C | 54% | 1026.2 hPa | - | - | - | - |
| 1777701975 | 17.78° C | 58% | 1026.6 hPa | - | - | - | - |
| 1777700771 | 17.78° C | 61% | 1026.6 hPa | - | - | - | - |
| 1777699566 | 17.78° C | 62% | 1026.6 hPa | - | - | - | - |
| 1777699259 | 17.78° C | 62% | 1026.6 hPa | - | - | - | - |
| 1777698052 | 17.22° C | 65% | 1026.4 hPa | - | - | - | - |
| 1777696849 | 17.78° C | 66% | 1026.5 hPa | - | - | - | - |
| 1777695645 | 17.78° C | 64% | 1026.4 hPa | - | - | - | - |
| 1777694442 | 17.22° C | 59% | 1026.5 hPa | - | - | - | - |
| 1777693238 | 17.78° C | 64% | 1026.6 hPa | - | - | - | - |
| 1777692032 | 17.78° C | 63% | 1026.5 hPa | - | - | - | - |
| 1777690828 | 17.22° C | 64% | 1026.3 hPa | - | - | - | - |
| 1777689624 | 17.78° C | 69% | 1026.5 hPa | - | - | - | - |
| 1777688418 | 17.78° C | 69% | 1026.7 hPa | - | - | - | - |
| 1777687214 | 17.78° C | 69% | 1026.7 hPa | - | - | - | - |
| 1777686007 | 17.78° C | 68% | 1026.7 hPa | - | - | - | - |
| 1777684803 | 17.78° C | 69% | 1026.6 hPa | - | - | - | - |
| 1777683600 | 17.78° C | 68% | 1026.4 hPa | - | - | - | - |
| 1777682397 | 17.78° C | 68% | 1026.6 hPa | - | - | - | - |
| 1777681191 | 18.33° C | 67% | 1026.7 hPa | - | - | - | - |
| 1777679987 | 18.33° C | 67% | 1026.7 hPa | - | - | - | - |
| 1777678781 | 18.33° C | 66% | 1026.8 hPa | - | - | - | - |
| 1777677578 | 18.33° C | 64% | 1027.1 hPa | - | - | - | - |
* Rain since midnight (hover to see other rain measurements)
** Current wind speed in m/s (hover to see current wind gust speed)